Weather History for Orange, MA

Change the Weather History Date:

Monday, June 18, 2012

  Actual Average Record
Temperature  
Mean Temperature 62 °F -  
Max Temperature 72 °F 76 °F 93 °F (2006)
Min Temperature 53 °F 52 °F 45 °F (2008)
Degree Days  
Heating Degree Days 2    
Growing Degree Days 12 (Base 50)    
Moisture  
Dew Point 52 °F    
Average Humidity 72    
Maximum Humidity 94    
Minimum Humidity 48    
Precipitation  
Precipitation 0.00 in - - ()
Sea Level Pressure  
Sea Level Pressure 30.14 in    
Wind  
Wind Speed 3 mph (South)    
Max Wind Speed 12 mph    
Max Gust Speed -    
Visibility 10 miles    
Events      
Averages and records for this station are not official NWS values.
T = Trace of Precipitation, MM = Missing Value Source: NWS Daily Summary

Daily Weather History Graph

Daily Weather History Graph

Search for Another Location

Airport:

Trip Planner

Search our weather history database for the weather conditions in past years. The results will help you decide how hot, cold, wet, or windy it might be!

Date:

Astronomy

Jun. 18, 2012 Rise Set
Actual Time 5:11 AM EDT 8:29 PM EDT
Civil Twilight 4:36 AM EDT 9:04 PM EDT
Nautical Twilight 3:50 AM EDT 9:50 PM EDT
Astronomical Twilight 2:55 AM EDT 10:45 PM EDT
Moon 4:24 AM EDT 7:45 PM EDT
Length of Visible Light 16h 28m
Length of Day
15h 18m
Waning Crescent, 1% of the Moon is Illuminated
Jun 18
Waning Crescent
Jun 19
New
Jun 26
First Quarter
Jul 3
Full
Jul 10
Last Quarter

Hourly Weather History & Observations

Time (EDT) Temp. Dew Point Humidity Pressure Visibility Wind Dir Wind Speed Gust Speed Precip Events Conditions
12:34 AM 55.4 °F 48.2 °F 77% 30.15 in 10.0 mi ESE 3.5 mph - N/A   Scattered Clouds
12:52 AM 55.0 °F 48.9 °F 80% 30.15 in 10.0 mi ESE 3.5 mph - N/A   Partly Cloudy
1:52 AM 54.0 °F 50.0 °F 86% 30.14 in 10.0 mi Calm Calm - N/A   Overcast
2:50 AM 53.6 °F 51.8 °F 94% 30.14 in 10.0 mi Calm Calm - N/A   Overcast
2:52 AM 54.0 °F 51.1 °F 90% 30.14 in 10.0 mi Calm Calm - N/A   Overcast
3:52 AM 54.0 °F 51.1 °F 90% 30.14 in 10.0 mi Calm Calm - N/A   Overcast
4:52 AM 55.0 °F 51.1 °F 86% 30.14 in 10.0 mi Calm Calm - N/A   Overcast
5:52 AM 55.9 °F 52.0 °F 87% 30.14 in 10.0 mi Calm Calm - N/A   Overcast
6:52 AM 57.0 °F 52.0 °F 83% 30.15 in 10.0 mi Calm Calm - N/A   Overcast
7:52 AM 57.0 °F 51.1 °F 81% 30.16 in 10.0 mi Calm Calm - N/A   Overcast
8:52 AM 59.0 °F 52.0 °F 78% 30.15 in 10.0 mi Calm Calm - N/A   Overcast
9:52 AM 60.1 °F 52.0 °F 75% 30.15 in 10.0 mi Calm Calm - N/A   Overcast
10:52 AM 61.0 °F 52.0 °F 72% 30.16 in 10.0 mi SW 4.6 mph - N/A   Overcast
11:22 AM 62.6 °F 51.8 °F 68% 30.14 in 10.0 mi South 5.8 mph - N/A   Overcast
11:52 AM 63.0 °F 48.9 °F 60% 30.15 in 10.0 mi South 5.8 mph - N/A   Overcast
12:52 PM 64.9 °F 50.0 °F 58% 30.16 in 10.0 mi SSW 9.2 mph - N/A   Overcast
1:52 PM 68.0 °F 50.0 °F 52% 30.14 in 10.0 mi South 5.8 mph - N/A   Mostly Cloudy
2:52 PM 70.0 °F 50.0 °F 49% 30.13 in 10.0 mi South 8.1 mph - N/A   Clear
3:52 PM 71.1 °F 51.1 °F 49% 30.12 in 10.0 mi SSW 11.5 mph - N/A   Scattered Clouds
4:52 PM 71.1 °F 51.1 °F 49% 30.10 in 10.0 mi South 10.4 mph - N/A   Clear
5:52 PM 72.0 °F 51.1 °F 48% 30.09 in 10.0 mi SSW 8.1 mph - N/A   Clear
6:52 PM 71.1 °F 52.0 °F 51% 30.09 in 10.0 mi South 6.9 mph - N/A   Clear
7:52 PM 69.1 °F 54.0 °F 58% 30.09 in 10.0 mi South 4.6 mph - N/A   Clear
8:52 PM 62.1 °F 55.9 °F 80% 30.12 in 10.0 mi Calm Calm - N/A   Partly Cloudy
9:52 PM 62.1 °F 55.9 °F 80% 30.14 in 10.0 mi South 3.5 mph - N/A   Mostly Cloudy
10:52 PM 62.1 °F 55.0 °F 78% 30.13 in 10.0 mi South 6.9 mph - N/A   Clear
11:52 PM 60.1 °F 53.1 °F 78% 30.14 in 10.0 mi SSE 4.6 mph - N/A   Clear